#timestamp,LO_Frequency,Hit,StdDev 
1652774415.6,286046999.7,N
1652774435.4,286047002.3,N
1652774455.2,286047002.4,N
1652774475.1,286047001.4,N
1652774476.0,286047001.4,N
1652774495.8,286047001.4,N
1652774515.6,286047001.6,N
1652774535.5,286047001.4,N
1652774555.3,286047002.2,N
1652774575.2,286047002.5,N
1652774595.9,286047002.4,N
1652774615.7,286047002.4,N
1652774635.6,286047000.7,N
1652774655.4,286046998.9,N
1652774675.3,286046996.9,N
1652774695.1,286046998.4,N
1652774696.0,286046998.4,N
1652774715.8,286046998.1,N
1652774735.7,286046998.5,N
1652774755.5,286046998.4,N
1652774775.3,286046998.7,N
1652774795.2,286046996.8,N
1652774815.0,286046996.8,N
1652774815.9,286046996.8,N
1652774835.8,286046996.6,N
1652774855.6,286046996.9,N
1652774875.4,286046997.5,N
1652774895.3,286046999.2,N
1652774915.1,286046996.8,N
1652774935.9,286046999.1,N
1652774955.7,286046998.8,N
1652774975.5,286046998.5,N
1652774995.4,286046998.2,N
1652775015.2,286047000.8,N
1652775035.0,286047000.4,N
1652775035.9,286047000.4,N
1652775055.8,286047001.2,N
1652775075.6,286047000.5,N
1652775095.5,286046998.5,N
1652775115.3,286046998.9,N
1652775135.1,286046999.1,N
1652775155.9,286046994.9,Y
1652775175.7,286046996.5,P
1652775195.5,286046997.0,N
1652775215.4,286046999.3,N
1652775235.2,286046998.3,N
1652775255.1,286046999.3,N
1652775256.0,286046999.3,N
1652775275.8,286046997.6,N
1652775295.6,286046995.4,Y
1652775315.5,286046996.9,P
1652775335.3,286046999.3,N
1652775355.2,286047001.0,N
1652775375.9,286047001.0,N
1652775395.7,286046998.8,N
1652775415.6,286046999.1,N
1652775435.4,286046997.0,N
1652775455.2,286046999.1,N
1652775475.1,286046998.6,N
1652775476.0,286046998.6,N
1652775495.8,286046999.4,N
1652775515.7,286046999.4,N
1652775535.5,286046999.5,N
1652775555.3,286046999.1,N
1652775575.2,286046996.5,Y
1652775595.0,286046998.9,P
1652775595.9,286046998.9,P
1652775615.7,286046999.3,P
1652775635.6,286046999.5,Y
1652775655.4,286046999.1,P
1652775675.3,286046997.0,P
1652775695.1,286046996.5,P
1652775715.8,286046999.2,N
1652775735.7,286046998.6,N
1652775755.5,286047001.2,N
1652775775.4,286047000.4,N
1652775795.2,286047000.1,N
1652775815.0,286047000.9,N
1652775815.9,286047000.9,N
1652775835.8,286047000.5,N
1652775855.6,286047001.0,N
1652775875.4,286047000.2,N
1652775895.3,286047000.4,N
1652775915.1,286046998.9,N
1652775935.9,286046998.3,N
1652775955.7,286046999.3,N
1652775975.5,286046996.8,N
1652775995.4,286046996.9,N
1652776015.2,286046996.7,N
1652776035.0,286046999.3,N
1652776035.9,286046999.3,N
1652776055.8,286046996.5,N
1652776075.6,286046996.5,N
1652776095.5,286046996.8,N
1652776115.3,286046999.6,N
1652776135.1,286046999.2,N
1652776155.9,286046997.0,N
1652776175.7,286046996.9,N
1652776195.6,286046996.7,N
1652776215.4,286046996.8,N
1652776235.2,286046997.0,N
1652776255.1,286046999.1,N
1652776256.0,286046999.1,N
1652776275.8,286046999.2,N
1652776295.6,286046999.0,N
1652776315.5,286046999.1,N
1652776335.3,286046997.7,N
1652776355.2,286046997.9,N
1652776375.9,286046999.3,N
1652776395.7,286046997.0,N
1652776415.6,286046997.8,N
1652776435.4,286046996.5,N
1652776455.2,286046999.6,N
1652776475.1,286046999.1,N
1652776476.0,286046999.1,N
1652776495.8,286046996.8,N
1652776515.7,286046996.5,Y
1652776535.5,286047000.7,P
1652776555.3,286047000.3,N
1652776575.2,286047001.0,N
1652776595.0,286047000.0,N
1652776595.9,286047000.0,N
1652776615.8,286047000.4,N
1652776635.6,286047000.1,N
1652776655.4,286047001.1,N
1652776675.3,286046998.6,N
1652776695.1,286047001.2,N
1652776715.9,286046999.2,N
1652776735.7,286046997.3,N
1652776755.5,286046998.9,N
1652776775.4,286046998.4,N
1652776795.2,286046999.4,N
1652776815.0,286046999.3,N
1652776815.9,286046999.3,N
1652776835.8,286046996.6,Y
1652776855.6,286046999.0,P
1652776875.5,286046999.2,N
1652776895.3,286046999.4,N
1652776915.1,286046999.4,N
1652776935.9,286046999.0,Y
1652776955.7,286046998.2,P
1652776975.5,286046998.8,N
1652776995.4,286046998.7,N
1652777015.2,286046998.2,Y
1652777035.1,286047001.1,P
1652777036.0,286047001.1,N
1652777055.8,286046998.7,N
1652777075.6,286047000.8,N
1652777095.5,286046999.1,N
1652777115.3,286046999.0,N
1652777135.2,286046997.3,N
1652777155.9,286046996.5,N
1652777175.7,286046997.7,N
1652777195.6,286046996.6,N
1652777215.4,286046997.1,N
1652777235.2,286046997.7,N
1652777255.1,286046997.7,N
1652777256.0,286046997.7,N
1652777275.8,286046996.5,N
1652777295.7,286046996.6,N
1652777315.5,286046999.4,N
1652777335.3,286046997.5,N
1652777355.2,286046997.3,N
1652777375.0,286046999.1,N
1652777375.9,286046999.1,N
1652777395.8,286046999.1,N
1652777415.6,286047000.8,N
1652777435.4,286047000.8,N
1652777455.3,286046998.3,N
1652777475.1,286046999.6,N
1652777495.8,286046999.5,N
1652777515.7,286047001.2,N
1652777535.5,286046998.2,N
1652777555.4,286046999.9,N
1652777575.2,286047000.3,N
1652777595.0,286047002.4,N
1652777595.9,286047002.4,N
1652777615.8,286047002.6,N
1652777635.6,286047002.3,N
1652777655.5,286047002.6,N
1652777675.3,286047002.8,N
1652777695.1,286046999.7,N
1652777715.9,286047002.5,N
1652777735.7,286047002.5,N
1652777755.5,286047002.5,N
1652777775.4,286047002.8,N
1652777795.2,286047001.6,N
1652777815.1,286047003.9,N
1652777816.0,286047003.9,N
1652777835.8,286047003.9,N
1652777855.6,286047004.2,N
1652777875.5,286047001.4,N
1652777895.3,286047004.1,N
1652777915.1,286047004.1,N
1652777935.9,286047004.3,N
1652777955.7,286047004.1,N
1652777975.6,286047003.7,N
1652777995.4,286047004.1,N
